This demonstration page uses our WeatherBlox Daily Observations layout. Learn more.

Left ArrowRight Arrow

Hourly Observations for May 21, 2020

Temp ( °F °C ) Dew Point ( °F °C ) Humidity (%) Winds ( mph kmh ) Pressure ( in mb ) Visibility ( mi km ) Precip ( " mm )
12:53 am 00:53 Clear 59 15 53 11.7 81 81 Calm 30.05 1018 10 16 0.00 0.00
1:53 am 01:53 Clear 59 15 53 11.7 81 81 NNW 5 7 30.04 1017 10 16 0.00 0.00
2:53 am 02:53 Clear 57 13.9 53 11.7 87 87 N 3 6 30.03 1017 10 16 0.00 0.00
3:53 am 03:53 Clear 57 13.9 52 11.1 83 83 NW 3 6 30.03 1017 10 16 0.00 0.00
4:53 am 04:53 Clear 56 13.3 52 11.1 87 87 Calm 30.02 1017 10 16 0.00 0.00
5:53 am 05:53 Sunny 54 12.2 51 10.6 90 90 NNW 3 6 30.02 1017 10 16 0.00 0.00
6:53 am 06:53 Sunny 58 14.4 52 11.1 81 81 N 3 6 30.02 1017 10 16 0.00 0.00
7:53 am 07:53 Sunny 63 17.2 52 11.1 68 68 N 5 7 30.02 1017 10 16 0.00 0.00
8:53 am 08:53 Sunny 66 18.9 50 10 56 56 NE 5 7 30.02 1017 10 16 0.00 0.00
9:53 am 09:53 Sunny 70 21.1 51 10.6 51 51 N 3 6 29.99 1016 10 16 0.00 0.00
10:53 am 10:53 Sunny 72 22.2 51 10.6 48 48 Calm 29.98 1015 10 16 0.00 0.00
11:53 am 11:53 Sunny 75 23.9 50 10 41 41 VRB 3 6 29.96 1015 10 16 0.00 0.00
12:53 pm 12:53 Sunny 78 25.6 50 10 37 37 VRB 7 11 29.94 1014 10 16 0.00 0.00
1:53 pm 13:53 Partly Cloudy 80 26.7 49 9.4 34 34 SSW 6 9 29.91 1013 10 16 0.00 0.00
2:53 pm 14:53 Partly Cloudy 82 27.8 46 7.8 28 28 VRB 5 7 29.88 1012 10 16 0.00 0.00
3:53 pm 15:53 Mostly Sunny 83 28.3 45 7.2 26 26 VRB 5 7 29.86 1011 10 16 0.00 0.00
4:53 pm 16:53 Mostly Cloudy 83 28.3 44 6.7 25 25 VRB 7 11 29.84 1011 10 16 0.00 0.00
5:53 pm 17:53 Mostly Sunny 81 27.2 43 6.1 26 26 W 12 19 29.83 1010 10 16 0.00 0.00
6:53 pm 18:53 Mostly Sunny 78 25.6 41 5 27 27 W 8 13 29.83 1010 10 16 0.00 0.00
7:53 pm 19:53 Sunny 75 23.9 41 5 29 29 NW 3 6 29.83 1010 10 16 0.00 0.00
8:53 pm 20:53 Clear 71 21.7 40 4.4 32 32 WNW 5 7 29.84 1011 10 16 0.00 0.00
9:53 pm 21:53 Clear 70 21.1 38 3.3 31 31 WNW 8 13 29.85 1011 10 16 0.00 0.00
10:53 pm 22:53 Clear 68 20 37 2.8 32 32 NW 7 11 29.84 1011 10 16 0.00 0.00
11:53 pm 23:53 Clear 66 18.9 36 2.2 33 33 WNW 10 17 29.85 1011 10 16 0.00 0.00

Powered by AerisWeather